Regional Weather Roundup
Issued by NWS

Home | Current Version | Previous Version | Graphics & Text | Print | Product List | Glossary On
Versions: 1 2 3 4 5 6 7 8 9 10 11 12 13 14 15 16 17 18 19 20 21 22 23 24 25 26 27 28 29 30 31 32 33 34 35 36 37 38 39 40 41 42 43 44 45 46 47 48 49 50
000
ASUS43 KTOP 170108
RWRKS

WEATHER ROUNDUP FOR KANSAS
NATIONAL WEATHER SERVICE GOODLAND KS
700 PM CST MON JAN 16 2017

NOTE:  "FAIR" INDICATES FEW OR NO CLOUDS BELOW 12,000 FEET WITH NO
SIGNIFICANT WEATHER AND/OR OBSTRUCTIONS TO VISIBILITY.

KSZ001>006-013>018-027>032-041>047-170200-
NORTHWEST KANSAS

CITY           SKY/WX    TMP DP  RH WIND       PRES   REMARKS
GOODLAND       CLOUDY    33  29  85 N16       30.05R WCI  23
HAYS           CLOUDY    34  32  92 NW12      30.00R WCI  25
HILL CITY      CLOUDY    34  34 100 N13       30.02R WCI  25
RUSSELL        CLOUDY    33  32  96 N10       29.98R WCI  25
$$

KSZ061>065-074>080-084>089-170200-
SOUTHWEST KANSAS

CITY           SKY/WX    TMP DP  RH WIND       PRES   REMARKS
DODGE CITY     CLOUDY    33  32  96 NW13      30.03R FOG     WCI  24
ELKHART          N/A     33  25  72 NW14        N/A  WCI  23
GARDEN CITY    CLOUDY    33  32  96 NW13      30.04R WCI  24
GREAT BEND     CLOUDY    33  31  92 NW12      30.01R WCI  24
LIBERAL        CLOUDY    37  32  81 NW13      30.05R WCI  29
PRATT          CLOUDY    31  30  96 NW10      30.01R FOG     WCI  23
$$

KSZ066>073-081>083-090>101-170200-
SOUTHEAST KANSAS

CITY           SKY/WX    TMP DP  RH WIND       PRES   REMARKS
CHANUTE        CLOUDY    40  37  89 SW9       29.97R
HUTCHINSON     CLOUDY    35  33  92 NW9       29.99R
MEDICINE LODGE   N/A     35  31  85 NW9       30.02R
NEWTON         CLOUDY    34  33  96 W12       29.98R WCI  25
PARSONS        CLOUDY    42  36  79 SW9       29.99R
WICHITA INTL   CLOUDY    37  34  89 W10       29.99R WCI  30
WICHITA JABRA  CLOUDY    36  34  92 W10       29.98R WCI  28
WICHITA MCCONL PTCLDY    37  33  87 W9        29.99R
WINFIELD       CLOUDY    39  35  86 W12       30.01R WCI  32
$$

KSZ007>012-019>026-033>040-048>060-102>105-170200-
NORTHEAST KANSAS

CITY           SKY/WX    TMP DP  RH WIND       PRES   REMARKS
CONCORDIA      CLOUDY    33  32  96 NW8       29.97R
EMPORIA        CLOUDY    37  35  92 W12       29.94R WCI  29
LAWRENCE       CLOUDY    40  39  97 SW9       29.91R FOG
MANHATTAN      CLOUDY    35  33  92 W6        29.95R
MARYSVILLE     CLOUDY    32  32 100 N9        29.93R
OLATHE IND     CLOUDY    41  39  93 SW16      29.91R
OLATHE EXE     CLOUDY    40  40 100 SW12G31   29.90R WCI  33
SALINA           N/A    N/A N/A N/A MISG        N/A
TOPEKA BILLARD CLOUDY    40  37  89 W9        29.92R
TOPEKA FORBES  CLOUDY    40  38  93 W13       29.91R WCI  32
$$




USA.gov is the U.S. government's official web portal to all federal, state and local government web resources and services.